Time,TemperatureF,DewpointF,PressureIn,WindDirection,WindDirectionDegrees,WindSpeedMPH,WindSpeedGustMPH,Humidity,HourlyPrecipIn,Conditions,Clouds,dailyrainin,SoftwareType,DateUTC
2013-10-08 00:01:00,53.2,46.2,30.00,WNW,294,0.0,2.0,77,0.00,,CLR,0.00,VWS V14.01,2013-10-08 04:01:00,
2013-10-08 00:02:00,53.2,46.2,30.00,NW,314,0.0,2.0,77,0.00,,CLR,0.00,VWS V14.01,2013-10-08 04:02:00,
2013-10-08 00:07:00,53.0,46.0,30.00,NW,314,1.0,3.0,77,0.00,,CLR,0.00,VWS V14.01,2013-10-08 04:07:00,
2013-10-08 00:12:00,52.9,45.9,30.01,NW,314,0.0,1.0,77,0.00,,CLR,0.00,VWS V14.01,2013-10-08 04:12:00,
2013-10-08 00:17:00,52.9,45.9,30.01,WNW,286,1.0,2.0,77,0.00,,CLR,0.00,VWS V14.01,2013-10-08 04:17:00,
2013-10-08 00:22:00,52.8,46.1,30.01,NW,318,0.0,0.0,78,0.00,,CLR,0.00,VWS V14.01,2013-10-08 04:22:00,
2013-10-08 00:27:00,52.5,45.8,30.01,NW,307,0.0,2.0,78,0.00,,CLR,0.00,VWS V14.01,2013-10-08 04:27:00,
2013-10-08 00:33:00,52.2,45.9,30.01,NW,316,0.0,1.0,79,0.00,,CLR,0.00,VWS V14.01,2013-10-08 04:33:00,
2013-10-08 00:38:00,52.2,45.9,30.01,NW,324,0.0,1.0,79,0.00,,CLR,0.00,VWS V14.01,2013-10-08 04:38:00,
2013-10-08 00:43:00,52.1,45.8,30.02,WNW,295,1.0,1.0,79,0.00,,CLR,0.00,VWS V14.01,2013-10-08 04:43:00,
2013-10-08 00:48:00,52.2,45.6,30.02,NW,312,0.0,0.0,78,0.00,,CLR,0.00,VWS V14.01,2013-10-08 04:48:00,
2013-10-08 00:53:00,52.3,45.7,30.02,NW,310,0.0,0.0,78,0.00,,CLR,0.00,VWS V14.01,2013-10-08 04:53:00,
2013-10-08 00:58:00,52.3,45.7,30.02,WNW,295,0.0,0.0,78,0.00,,CLR,0.00,VWS V14.01,2013-10-08 04:58:00,
2013-10-08 01:03:00,52.0,45.4,30.03,WNW,297,0.0,0.0,78,0.00,,CLR,0.00,VWS V14.01,2013-10-08 05:03:00,
2013-10-08 01:08:00,51.8,45.2,30.03,NW,323,0.0,0.0,78,0.00,,CLR,0.00,VWS V14.01,2013-10-08 05:08:00,
2013-10-08 01:13:00,51.4,45.1,30.03,NW,323,0.0,0.0,79,0.00,,CLR,0.00,VWS V14.01,2013-10-08 05:13:00,
2013-10-08 01:18:00,51.1,45.2,30.03,NW,323,0.0,0.0,80,0.00,,CLR,0.00,VWS V14.01,2013-10-08 05:18:00,
2013-10-08 01:23:00,50.8,45.5,30.04,NW,318,0.0,0.0,82,0.00,,CLR,0.00,VWS V14.01,2013-10-08 05:23:00,
2013-10-08 01:29:00,50.1,45.5,30.04,ENE,78,0.0,0.0,84,0.00,,CLR,0.00,VWS V14.01,2013-10-08 05:29:00,
2013-10-08 01:34:00,49.7,45.1,30.04,East,86,0.0,0.0,84,0.00,,CLR,0.00,VWS V14.01,2013-10-08 05:34:00,
2013-10-08 01:39:00,49.5,44.9,30.05,East,89,0.0,0.0,84,0.00,,CLR,0.00,VWS V14.01,2013-10-08 05:39:00,
2013-10-08 01:44:00,49.6,45.0,30.05,East,91,0.0,0.0,84,0.00,,CLR,0.00,VWS V14.01,2013-10-08 05:44:00,
2013-10-08 01:49:00,49.1,45.1,30.05,East,83,0.0,0.0,86,0.00,,CLR,0.00,VWS V14.01,2013-10-08 05:49:00,
2013-10-08 01:54:00,49.0,45.0,30.05,East,84,0.0,0.0,86,0.00,,CLR,0.00,VWS V14.01,2013-10-08 05:54:00,
2013-10-08 01:59:00,49.1,44.8,30.05,East,83,0.0,0.0,85,0.00,,CLR,0.00,VWS V14.01,2013-10-08 05:59:00,
2013-10-08 02:04:00,48.8,44.8,30.06,East,83,0.0,0.0,86,0.00,,CLR,0.00,VWS V14.01,2013-10-08 06:04:00,
2013-10-08 02:09:00,48.4,45.0,30.06,ESE,103,0.0,0.0,88,0.00,,CLR,0.00,VWS V14.01,2013-10-08 06:09:00,
2013-10-08 02:14:00,47.9,44.8,30.06,East,101,0.0,0.0,89,0.00,,CLR,0.00,VWS V14.01,2013-10-08 06:14:00,
2013-10-08 02:19:00,47.7,44.6,30.06,East,99,0.0,0.0,89,0.00,,CLR,0.00,VWS V14.01,2013-10-08 06:19:00,
2013-10-08 02:25:00,48.4,44.7,30.06,East,98,0.0,0.0,87,0.00,,CLR,0.00,VWS V14.01,2013-10-08 06:25:00,
2013-10-08 02:30:00,48.7,44.7,30.06,East,98,0.0,0.0,86,0.00,,CLR,0.00,VWS V14.01,2013-10-08 06:30:00,
2013-10-08 02:35:00,49.0,44.7,30.06,East,94,0.0,0.0,85,0.00,,CLR,0.00,VWS V14.01,2013-10-08 06:35:00,
2013-10-08 02:40:00,49.1,44.8,30.06,East,94,0.0,0.0,85,0.00,,CLR,0.00,VWS V14.01,2013-10-08 06:40:00,
2013-10-08 02:45:00,49.3,44.7,30.06,East,94,0.0,0.0,84,0.00,,CLR,0.00,VWS V14.01,2013-10-08 06:45:00,
2013-10-08 02:50:00,49.5,44.9,30.06,East,94,0.0,0.0,84,0.00,,CLR,0.00,VWS V14.01,2013-10-08 06:50:00,
2013-10-08 02:55:00,49.7,44.8,30.06,East,93,0.0,0.0,83,0.00,,CLR,0.00,VWS V14.01,2013-10-08 06:55:00,
2013-10-08 03:00:00,49.7,44.8,30.07,East,94,0.0,0.0,83,0.00,,CLR,0.00,VWS V14.01,2013-10-08 07:00:00,
2013-10-08 03:05:00,49.7,45.1,30.07,NNE,20,0.0,0.0,84,0.00,,CLR,0.00,VWS V14.01,2013-10-08 07:05:00,
2013-10-08 03:10:00,49.7,44.8,30.07,NNE,20,0.0,0.0,83,0.00,,CLR,0.00,VWS V14.01,2013-10-08 07:10:00,
2013-10-08 03:15:00,49.7,44.8,30.07,North,5,0.0,0.0,83,0.00,,CLR,0.00,VWS V14.01,2013-10-08 07:15:00,
2013-10-08 03:20:00,49.8,44.8,30.07,North,4,0.0,0.0,83,0.00,,CLR,0.00,VWS V14.01,2013-10-08 07:20:00,
2013-10-08 03:25:00,49.7,45.1,30.07,NW,309,0.0,0.0,84,0.00,,CLR,0.00,VWS V14.01,2013-10-08 07:25:00,
2013-10-08 03:30:00,49.5,44.9,30.07,NW,309,0.0,0.0,84,0.00,,CLR,0.00,VWS V14.01,2013-10-08 07:30:00,
2013-10-08 03:35:00,49.1,44.8,30.07,North,353,0.0,0.0,85,0.00,,CLR,0.00,VWS V14.01,2013-10-08 07:35:00,
2013-10-08 03:40:00,49.3,45.0,30.07,WNW,294,0.0,0.0,85,0.00,,CLR,0.00,VWS V14.01,2013-10-08 07:40:00,
2013-10-08 03:45:00,49.4,45.1,30.08,NW,304,0.0,0.0,85,0.00,,CLR,0.00,VWS V14.01,2013-10-08 07:45:00,
2013-10-08 03:50:00,49.3,45.0,30.08,WNW,303,0.0,0.0,85,0.00,,CLR,0.00,VWS V14.01,2013-10-08 07:50:00,
2013-10-08 03:55:00,49.3,45.0,30.08,NW,304,0.0,0.0,85,0.00,,CLR,0.00,VWS V14.01,2013-10-08 07:55:00,
2013-10-08 04:00:00,49.2,44.9,30.08,NE,53,0.0,0.0,85,0.00,,CLR,0.00,VWS V14.01,2013-10-08 08:00:00,
2013-10-08 04:05:00,49.4,45.1,30.09,NE,52,0.0,0.0,85,0.00,,CLR,0.00,VWS V14.01,2013-10-08 08:05:00,
2013-10-08 04:10:00,49.4,44.8,30.09,NE,53,0.0,0.0,84,0.00,,CLR,0.00,VWS V14.01,2013-10-08 08:10:00,
2013-10-08 04:15:00,49.1,44.8,30.10,NE,51,0.0,0.0,85,0.00,,CLR,0.00,VWS V14.01,2013-10-08 08:15:00,
2013-10-08 04:20:00,48.8,44.5,30.10,NE,51,0.0,0.0,85,0.00,,CLR,0.00,VWS V14.01,2013-10-08 08:20:00,
2013-10-08 04:25:00,48.3,44.6,30.10,NE,51,0.0,0.0,87,0.00,,CLR,0.00,VWS V14.01,2013-10-08 08:25:00,
2013-10-08 04:30:00,47.8,44.4,30.11,NE,51,0.0,0.0,88,0.00,,CLR,0.00,VWS V14.01,2013-10-08 08:30:00,
2013-10-08 04:35:00,47.6,44.5,30.11,NE,51,0.0,0.0,89,0.00,,CLR,0.00,VWS V14.01,2013-10-08 08:35:00,
2013-10-08 04:40:00,47.7,44.6,30.11,NE,51,0.0,0.0,89,0.00,,CLR,0.00,VWS V14.01,2013-10-08 08:40:00,
2013-10-08 04:45:00,47.7,44.3,30.11,NE,51,0.0,0.0,88,0.00,,CLR,0.00,VWS V14.01,2013-10-08 08:45:00,
2013-10-08 04:50:00,47.7,44.6,30.12,NE,51,0.0,0.0,89,0.00,,CLR,0.00,VWS V14.01,2013-10-08 08:50:00,
2013-10-08 04:55:00,47.5,44.4,30.12,NE,51,0.0,0.0,89,0.00,,CLR,0.00,VWS V14.01,2013-10-08 08:55:00,
2013-10-08 05:00:00,47.2,44.4,30.12,NE,51,0.0,0.0,90,0.00,,CLR,0.00,VWS V14.01,2013-10-08 09:00:00,
2013-10-08 05:05:00,46.4,43.9,30.13,ESE,108,0.0,0.0,91,0.00,,CLR,0.00,VWS V14.01,2013-10-08 09:05:00,
2013-10-08 05:10:00,45.9,44.0,30.13,ESE,108,0.0,0.0,93,0.00,,CLR,0.00,VWS V14.01,2013-10-08 09:10:00,
2013-10-08 05:16:00,45.6,44.0,30.13,ESE,122,0.0,0.0,94,0.00,,CLR,0.00,VWS V14.01,2013-10-08 09:16:00,
2013-10-08 05:21:00,45.7,44.3,30.13,SE,131,0.0,0.0,95,0.00,,CLR,0.00,VWS V14.01,2013-10-08 09:21:00,
2013-10-08 05:26:00,46.0,44.7,30.13,ESE,115,0.0,0.0,95,0.00,,CLR,0.00,VWS V14.01,2013-10-08 09:26:00,
2013-10-08 05:31:00,45.6,44.0,30.14,ESE,115,0.0,0.0,94,0.00,,CLR,0.00,VWS V14.01,2013-10-08 09:31:00,
2013-10-08 05:36:00,45.6,44.0,30.14,ESE,115,0.0,0.0,94,0.00,,CLR,0.00,VWS V14.01,2013-10-08 09:36:00,
2013-10-08 05:41:00,45.6,44.0,30.14,ESE,115,0.0,0.0,94,0.00,,CLR,0.00,VWS V14.01,2013-10-08 09:41:00,
2013-10-08 05:46:00,45.6,44.0,30.14,ESE,115,0.0,0.0,94,0.00,,CLR,0.00,VWS V14.01,2013-10-08 09:46:00,
2013-10-08 05:51:00,45.6,44.0,30.15,ESE,115,0.0,0.0,94,0.00,,CLR,0.00,VWS V14.01,2013-10-08 09:51:00,
2013-10-08 05:56:00,45.6,44.0,30.15,ESE,115,0.0,0.0,94,0.00,,CLR,0.00,VWS V14.01,2013-10-08 09:56:00,
2013-10-08 06:01:00,45.6,44.0,30.15,ESE,115,0.0,0.0,94,0.00,,CLR,0.00,VWS V14.01,2013-10-08 10:01:00,
2013-10-08 06:06:00,45.6,44.0,30.15,ESE,115,0.0,0.0,94,0.00,,CLR,0.00,VWS V14.01,2013-10-08 10:06:00,
2013-10-08 06:11:00,45.6,44.0,30.16,ESE,115,0.0,0.0,94,0.00,,CLR,0.00,VWS V14.01,2013-10-08 10:11:00,
2013-10-08 06:16:00,45.6,44.0,30.16,ESE,115,0.0,0.0,94,0.00,,CLR,0.00,VWS V14.01,2013-10-08 10:16:00,
2013-10-08 06:22:00,45.6,44.0,30.16,ESE,115,0.0,0.0,94,0.00,,CLR,0.00,VWS V14.01,2013-10-08 10:22:00,
2013-10-08 06:27:00,45.6,44.0,30.16,ESE,115,0.0,0.0,94,0.00,,CLR,0.00,VWS V14.01,2013-10-08 10:27:00,
2013-10-08 06:32:00,45.6,44.0,30.16,ESE,115,0.0,0.0,94,0.00,,CLR,0.00,VWS V14.01,2013-10-08 10:32:00,
2013-10-08 06:37:00,45.6,44.0,30.16,ESE,115,0.0,0.0,94,0.00,,CLR,0.00,VWS V14.01,2013-10-08 10:37:00,
2013-10-08 06:42:00,45.6,44.0,30.16,ESE,115,0.0,0.0,94,0.00,,CLR,0.00,VWS V14.01,2013-10-08 10:42:00,
2013-10-08 06:47:00,48.7,45.0,30.16,North,11,0.0,0.0,87,0.00,,CLR,0.00,VWS V14.01,2013-10-08 10:47:00,
2013-10-08 06:52:00,48.0,44.3,30.16,ESE,114,0.0,0.0,87,0.00,,CLR,0.00,VWS V14.01,2013-10-08 10:52:00,
2013-10-08 06:57:00,46.4,43.6,30.16,ESE,115,0.0,0.0,90,0.00,,CLR,0.00,VWS V14.01,2013-10-08 10:57:00,
2013-10-08 07:02:00,45.7,43.5,30.17,ESE,114,0.0,0.0,92,0.00,,CLR,0.00,VWS V14.01,2013-10-08 11:02:00,
2013-10-08 07:07:00,45.3,43.4,30.17,ESE,115,0.0,0.0,93,0.00,,CLR,0.00,VWS V14.01,2013-10-08 11:07:00,
2013-10-08 07:12:00,45.3,43.7,30.17,ESE,114,0.0,0.0,94,0.00,,CLR,0.00,VWS V14.01,2013-10-08 11:12:00,
2013-10-08 07:17:00,45.4,44.0,30.17,ESE,115,0.0,0.0,95,0.00,,CLR,0.00,VWS V14.01,2013-10-08 11:17:00,
2013-10-08 07:23:00,45.6,44.2,30.18,NNW,340,0.0,0.0,95,0.00,,CLR,0.00,VWS V14.01,2013-10-08 11:23:00,
2013-10-08 07:28:00,45.7,44.1,30.18,NNW,340,0.0,0.0,94,0.00,,CLR,0.00,VWS V14.01,2013-10-08 11:28:00,
2013-10-08 07:33:00,46.0,44.4,30.19,NNW,341,0.0,0.0,94,0.00,,CLR,0.00,VWS V14.01,2013-10-08 11:33:00,
2013-10-08 07:38:00,45.9,44.0,30.20,SE,131,0.0,0.0,93,0.00,,CLR,0.00,VWS V14.01,2013-10-08 11:38:00,
2013-10-08 07:43:00,45.9,44.3,30.20,SE,130,0.0,0.0,94,0.00,,CLR,0.00,VWS V14.01,2013-10-08 11:43:00,
2013-10-08 07:48:00,46.5,45.2,30.20,SE,130,0.0,0.0,95,0.00,,CLR,0.00,VWS V14.01,2013-10-08 11:48:00,
2013-10-08 07:53:00,47.9,46.5,30.20,SE,130,0.0,0.0,95,0.00,,CLR,0.00,VWS V14.01,2013-10-08 11:53:00,
2013-10-08 07:58:00,48.3,46.1,30.21,SE,129,0.0,0.0,92,0.00,,CLR,0.00,VWS V14.01,2013-10-08 11:58:00,
2013-10-08 08:03:00,48.5,45.7,30.21,SE,127,0.0,0.0,90,0.00,,CLR,0.00,VWS V14.01,2013-10-08 12:03:00,
2013-10-08 08:08:00,48.9,45.8,30.21,NW,317,0.0,0.0,89,0.00,,CLR,0.00,VWS V14.01,2013-10-08 12:08:00,
2013-10-08 08:14:00,49.5,46.4,30.21,NW,319,0.0,0.0,89,0.00,,CLR,0.00,VWS V14.01,2013-10-08 12:14:00,
2013-10-08 08:19:00,51.0,47.9,30.21,ENE,60,0.0,0.0,89,0.00,,CLR,0.00,VWS V14.01,2013-10-08 12:19:00,
2013-10-08 08:24:00,52.6,49.2,30.22,ESE,105,0.0,0.0,88,0.00,,CLR,0.00,VWS V14.01,2013-10-08 12:24:00,
2013-10-08 08:29:00,52.9,49.1,30.23,SE,134,0.0,0.0,87,0.00,,CLR,0.00,VWS V14.01,2013-10-08 12:29:00,
2013-10-08 08:34:00,53.8,50.0,30.23,SE,133,0.0,0.0,87,0.00,,CLR,0.00,VWS V14.01,2013-10-08 12:34:00,
2013-10-08 08:39:00,53.4,49.0,30.23,SE,128,0.0,0.0,85,0.00,,CLR,0.00,VWS V14.01,2013-10-08 12:39:00,
2013-10-08 08:44:00,53.3,48.9,30.23,SE,129,0.0,0.0,85,0.00,,CLR,0.00,VWS V14.01,2013-10-08 12:44:00,
2013-10-08 08:49:00,53.9,49.2,30.24,SE,127,0.0,0.0,84,0.00,,CLR,0.00,VWS V14.01,2013-10-08 12:49:00,
2013-10-08 08:54:00,54.2,49.8,30.24,ESE,117,0.0,0.0,85,0.00,,CLR,0.00,VWS V14.01,2013-10-08 12:54:00,
2013-10-08 08:59:00,54.8,50.4,30.24,SE,131,0.0,0.0,85,0.00,,CLR,0.00,VWS V14.01,2013-10-08 12:59:00,
2013-10-08 09:04:00,54.9,48.9,30.24,NW,314,0.0,1.0,80,0.00,,CLR,0.00,VWS V14.01,2013-10-08 13:04:00,
2013-10-08 09:09:00,54.9,48.5,30.24,NW,312,0.0,0.0,79,0.00,,CLR,0.00,VWS V14.01,2013-10-08 13:09:00,
2013-10-08 09:14:00,54.8,48.1,30.24,NW,321,0.0,1.0,78,0.00,,CLR,0.00,VWS V14.01,2013-10-08 13:14:00,
2013-10-08 09:19:00,54.7,48.3,30.25,North,6,0.0,1.0,79,0.00,,CLR,0.00,VWS V14.01,2013-10-08 13:19:00,
2013-10-08 09:25:00,54.9,48.5,30.25,NW,321,0.0,1.0,79,0.00,,CLR,0.00,VWS V14.01,2013-10-08 13:25:00,
2013-10-08 09:30:00,55.3,49.2,30.25,WNW,297,0.0,0.0,80,0.00,,CLR,0.00,VWS V14.01,2013-10-08 13:30:00,
2013-10-08 09:35:00,55.8,48.4,30.25,NW,316,0.0,0.0,76,0.00,,CLR,0.00,VWS V14.01,2013-10-08 13:35:00,
2013-10-08 09:40:00,56.1,48.3,30.25,East,81,0.0,1.0,75,0.00,,CLR,0.00,VWS V14.01,2013-10-08 13:40:00,
2013-10-08 09:45:00,56.7,48.5,30.25,NNW,327,0.0,0.0,74,0.00,,CLR,0.00,VWS V14.01,2013-10-08 13:45:00,
2013-10-08 09:50:00,56.8,48.6,30.26,WNW,298,0.0,1.0,74,0.00,,CLR,0.00,VWS V14.01,2013-10-08 13:50:00,
2013-10-08 09:55:00,57.0,48.8,30.25,West,281,0.0,0.0,74,0.00,,CLR,0.00,VWS V14.01,2013-10-08 13:55:00,
2013-10-08 10:00:00,57.2,48.3,30.25,NNW,327,0.0,1.0,72,0.00,,CLR,0.00,VWS V14.01,2013-10-08 14:00:00,
2013-10-08 10:05:00,57.7,49.5,30.26,North,11,0.0,0.0,74,0.00,,CLR,0.00,VWS V14.01,2013-10-08 14:05:00,
2013-10-08 10:10:00,58.1,48.4,30.25,NW,314,0.0,1.0,70,0.00,,CLR,0.00,VWS V14.01,2013-10-08 14:10:00,
2013-10-08 10:15:00,57.9,47.8,30.25,East,94,0.0,2.0,69,0.00,,CLR,0.00,VWS V14.01,2013-10-08 14:15:00,
2013-10-08 10:20:00,58.0,47.9,30.25,WNW,301,0.0,1.0,69,0.00,,CLR,0.00,VWS V14.01,2013-10-08 14:20:00,
2013-10-08 10:25:00,58.5,48.0,30.25,NW,314,0.0,1.0,68,0.00,,CLR,0.00,VWS V14.01,2013-10-08 14:25:00,
2013-10-08 10:30:00,58.5,48.0,30.25,NE,51,0.0,10.0,68,0.00,,CLR,0.00,VWS V14.01,2013-10-08 14:30:00,
2013-10-08 10:35:00,58.9,48.0,30.24,NNW,328,0.0,2.0,67,0.00,,CLR,0.00,VWS V14.01,2013-10-08 14:35:00,
2013-10-08 10:40:00,59.3,48.8,30.24,NW,321,0.0,4.0,68,0.00,,CLR,0.00,VWS V14.01,2013-10-08 14:40:00,
2013-10-08 10:45:00,59.4,48.0,30.25,NW,307,0.0,7.0,66,0.00,,CLR,0.00,VWS V14.01,2013-10-08 14:45:00,
2013-10-08 10:50:00,59.9,47.7,30.25,SE,139,0.0,3.0,64,0.00,,CLR,0.00,VWS V14.01,2013-10-08 14:50:00,
2013-10-08 10:55:00,60.0,46.5,30.25,NW,322,0.0,7.0,61,0.00,,CLR,0.00,VWS V14.01,2013-10-08 14:55:00,
2013-10-08 11:00:00,59.9,47.3,30.25,ENE,68,0.0,9.0,63,0.00,,CLR,0.00,VWS V14.01,2013-10-08 15:00:00,
2013-10-08 11:05:00,60.3,46.8,30.25,NNE,32,4.0,9.0,61,0.00,,CLR,0.00,VWS V14.01,2013-10-08 15:05:00,
2013-10-08 11:10:00,60.3,47.7,30.25,WNW,285,0.0,13.0,63,0.00,,CLR,0.00,VWS V14.01,2013-10-08 15:10:00,
2013-10-08 11:15:00,60.7,47.6,30.25,North,6,2.0,10.0,62,0.00,,CLR,0.00,VWS V14.01,2013-10-08 15:15:00,
2013-10-08 11:20:00,60.7,46.8,30.25,WNW,296,1.0,8.0,60,0.00,,CLR,0.00,VWS V14.01,2013-10-08 15:20:00,
2013-10-08 11:25:00,61.2,47.7,30.25,WNW,300,8.0,8.0,61,0.00,,CLR,0.00,VWS V14.01,2013-10-08 15:25:00,
2013-10-08 11:30:00,60.9,46.5,30.25,East,86,0.0,9.0,59,0.00,,CLR,0.00,VWS V14.01,2013-10-08 15:30:00,
2013-10-08 11:35:00,61.2,47.2,30.26,North,3,4.0,13.0,60,0.00,,CLR,0.00,VWS V14.01,2013-10-08 15:35:00,
2013-10-08 11:40:00,61.4,47.4,30.26,WSW,238,1.0,9.0,60,0.00,,CLR,0.00,VWS V14.01,2013-10-08 15:40:00,
2013-10-08 11:45:00,61.4,47.8,30.26,North,349,1.0,8.0,61,0.00,,CLR,0.00,VWS V14.01,2013-10-08 15:45:00,
2013-10-08 11:50:00,61.4,48.3,30.26,ENE,72,0.0,11.0,62,0.00,,CLR,0.00,VWS V14.01,2013-10-08 15:50:00,
2013-10-08 11:55:00,62.4,47.9,30.26,WNW,285,0.0,5.0,59,0.00,,CLR,0.00,VWS V14.01,2013-10-08 15:55:00,
2013-10-08 12:00:00,63.0,48.5,30.26,NNE,22,0.0,10.0,59,0.00,,CLR,0.00,VWS V14.01,2013-10-08 16:00:00,
2013-10-08 12:05:00,63.6,48.1,30.25,East,96,0.0,3.0,57,0.00,,CLR,0.00,VWS V14.01,2013-10-08 16:05:00,
2013-10-08 12:10:00,63.5,47.5,30.25,NE,47,1.0,1.0,56,0.00,,CLR,0.00,VWS V14.01,2013-10-08 16:10:00,
2013-10-08 12:15:00,62.6,46.7,30.25,North,4,5.0,10.0,56,0.00,,CLR,0.00,VWS V14.01,2013-10-08 16:15:00,
2013-10-08 12:20:00,62.2,46.8,30.25,ENE,75,1.0,11.0,57,0.00,,CLR,0.00,VWS V14.01,2013-10-08 16:20:00,
2013-10-08 12:25:00,62.4,47.0,30.25,North,354,0.0,5.0,57,0.00,,CLR,0.00,VWS V14.01,2013-10-08 16:25:00,
2013-10-08 12:30:00,62.8,48.3,30.24,NNW,343,0.0,4.0,59,0.00,,CLR,0.00,VWS V14.01,2013-10-08 16:30:00,
2013-10-08 12:35:00,63.6,47.6,30.24,WNW,302,6.0,7.0,56,0.00,,CLR,0.00,VWS V14.01,2013-10-08 16:35:00,
2013-10-08 12:40:00,63.1,46.7,30.24,NW,307,0.0,8.0,55,0.00,,CLR,0.00,VWS V14.01,2013-10-08 16:40:00,
2013-10-08 12:45:00,63.1,47.6,30.24,SE,136,0.0,9.0,57,0.00,,CLR,0.00,VWS V14.01,2013-10-08 16:45:00,
2013-10-08 12:50:00,63.3,47.8,30.24,SE,135,0.0,8.0,57,0.00,,CLR,0.00,VWS V14.01,2013-10-08 16:50:00,
2013-10-08 12:55:00,63.4,47.5,30.24,WNW,295,0.0,6.0,56,0.00,,CLR,0.00,VWS V14.01,2013-10-08 16:55:00,
2013-10-08 13:00:00,63.5,47.1,30.23,NW,314,7.0,8.0,55,0.00,,CLR,0.00,VWS V14.01,2013-10-08 17:00:00,
2013-10-08 13:05:00,63.9,47.4,30.23,NNE,28,0.0,0.0,55,0.00,,CLR,0.00,VWS V14.01,2013-10-08 17:05:00,
2013-10-08 13:10:00,63.8,47.3,30.23,NNW,345,6.0,6.0,55,0.00,,CLR,0.00,VWS V14.01,2013-10-08 17:10:00,
2013-10-08 13:15:00,64.0,48.0,30.23,ENE,76,0.0,1.0,56,0.00,,CLR,0.00,VWS V14.01,2013-10-08 17:15:00,
2013-10-08 13:20:00,63.9,47.9,30.22,East,88,0.0,2.0,56,0.00,,CLR,0.00,VWS V14.01,2013-10-08 17:20:00,
2013-10-08 13:25:00,64.0,48.0,30.23,ENE,65,5.0,6.0,56,0.00,,CLR,0.00,VWS V14.01,2013-10-08 17:25:00,
2013-10-08 13:30:00,64.2,47.2,30.23,North,349,0.0,8.0,54,0.00,,CLR,0.00,VWS V14.01,2013-10-08 17:30:00,
2013-10-08 13:35:00,64.4,47.9,30.23,WNW,286,0.0,0.0,55,0.00,,CLR,0.00,VWS V14.01,2013-10-08 17:35:00,
2013-10-08 13:40:00,65.1,47.1,30.23,WNW,303,1.0,6.0,52,0.00,,CLR,0.00,VWS V14.01,2013-10-08 17:40:00,
2013-10-08 13:45:00,64.5,47.0,30.23,ESE,123,1.0,1.0,53,0.00,,CLR,0.00,VWS V14.01,2013-10-08 17:45:00,
2013-10-08 13:50:00,64.2,46.2,30.23,WNW,286,2.0,6.0,52,0.00,,CLR,0.00,VWS V14.01,2013-10-08 17:50:00,
2013-10-08 13:56:00,63.9,45.4,30.23,NW,319,1.0,10.0,51,0.00,,CLR,0.00,VWS V14.01,2013-10-08 17:56:00,
2013-10-08 14:01:00,64.1,45.6,30.22,ESE,110,0.0,1.0,51,0.00,,CLR,0.00,VWS V14.01,2013-10-08 18:01:00,
2013-10-08 14:06:00,64.8,45.7,30.23,WNW,289,3.0,6.0,50,0.00,,CLR,0.00,VWS V14.01,2013-10-08 18:06:00,
2013-10-08 14:11:00,64.7,46.2,30.23,NNW,342,2.0,6.0,51,0.00,,CLR,0.00,VWS V14.01,2013-10-08 18:11:00,
2013-10-08 14:16:00,64.7,46.2,30.23,NNW,333,4.0,5.0,51,0.00,,CLR,0.00,VWS V14.01,2013-10-08 18:16:00,
2013-10-08 14:21:00,64.8,48.8,30.23,East,82,0.0,3.0,56,0.00,,CLR,0.00,VWS V14.01,2013-10-08 18:21:00,
2013-10-08 14:26:00,65.8,48.2,30.23,WSW,257,0.0,2.0,53,0.00,,CLR,0.00,VWS V14.01,2013-10-08 18:26:00,
2013-10-08 14:31:00,66.1,46.9,30.23,East,98,1.0,4.0,50,0.00,,CLR,0.00,VWS V14.01,2013-10-08 18:31:00,
2013-10-08 14:36:00,66.5,47.8,30.24,NNE,29,0.0,2.0,51,0.00,,CLR,0.00,VWS V14.01,2013-10-08 18:36:00,
2013-10-08 14:41:00,66.7,48.5,30.23,NNW,329,1.0,4.0,52,0.00,,CLR,0.00,VWS V14.01,2013-10-08 18:41:00,
2013-10-08 14:46:00,66.2,46.5,30.23,ENE,77,3.0,3.0,49,0.00,,CLR,0.00,VWS V14.01,2013-10-08 18:46:00,
2013-10-08 14:51:00,66.2,46.0,30.23,NNW,330,0.0,5.0,48,0.00,,CLR,0.00,VWS V14.01,2013-10-08 18:51:00,
2013-10-08 14:56:00,65.8,46.7,30.23,NE,34,0.0,4.0,50,0.00,,CLR,0.00,VWS V14.01,2013-10-08 18:56:00,
2013-10-08 15:01:00,65.7,46.6,30.23,NE,53,0.0,2.0,50,0.00,,CLR,0.00,VWS V14.01,2013-10-08 19:01:00,
2013-10-08 15:07:00,65.6,46.5,30.23,NW,307,0.0,3.0,50,0.00,,CLR,0.00,VWS V14.01,2013-10-08 19:07:00,
2013-10-08 15:11:00,65.7,48.1,30.23,NW,318,0.0,1.0,53,0.00,,CLR,0.00,VWS V14.01,2013-10-08 19:11:00,
2013-10-08 15:17:00,66.2,46.5,30.23,NNE,19,0.0,1.0,49,0.00,,CLR,0.00,VWS V14.01,2013-10-08 19:17:00,
2013-10-08 15:22:00,66.4,47.7,30.23,WNW,293,0.0,2.0,51,0.00,,CLR,0.00,VWS V14.01,2013-10-08 19:22:00,
2013-10-08 15:27:00,66.4,47.7,30.23,WNW,300,0.0,3.0,51,0.00,,CLR,0.00,VWS V14.01,2013-10-08 19:27:00,
2013-10-08 15:32:00,66.3,49.2,30.23,NNW,329,0.0,1.0,54,0.00,,CLR,0.00,VWS V14.01,2013-10-08 19:32:00,
2013-10-08 15:37:00,66.6,47.4,30.22,NW,316,0.0,1.0,50,0.00,,CLR,0.00,VWS V14.01,2013-10-08 19:37:00,
2013-10-08 15:42:00,67.1,48.9,30.22,NW,307,0.0,3.0,52,0.00,,CLR,0.00,VWS V14.01,2013-10-08 19:42:00,
2013-10-08 15:47:00,67.6,47.8,30.22,NNW,340,0.0,5.0,49,0.00,,CLR,0.00,VWS V14.01,2013-10-08 19:47:00,
2013-10-08 15:52:00,67.7,47.9,30.22,ENE,59,0.0,2.0,49,0.00,,CLR,0.00,VWS V14.01,2013-10-08 19:52:00,
2013-10-08 15:57:00,67.2,46.9,30.22,NNE,29,0.0,6.0,48,0.00,,CLR,0.00,VWS V14.01,2013-10-08 19:57:00,
2013-10-08 16:02:00,66.3,48.2,30.22,East,91,0.0,3.0,52,0.00,,CLR,0.00,VWS V14.01,2013-10-08 20:02:00,
2013-10-08 16:07:00,66.7,48.5,30.22,WNW,290,0.0,1.0,52,0.00,,CLR,0.00,VWS V14.01,2013-10-08 20:07:00,
2013-10-08 16:13:00,66.7,48.0,30.22,North,353,0.0,1.0,51,0.00,,CLR,0.00,VWS V14.01,2013-10-08 20:13:00,
2013-10-08 16:18:00,66.4,47.2,30.22,ENE,73,0.0,9.0,50,0.00,,CLR,0.00,VWS V14.01,2013-10-08 20:18:00,
2013-10-08 16:23:00,66.2,47.6,30.21,NNW,333,0.0,7.0,51,0.00,,CLR,0.00,VWS V14.01,2013-10-08 20:23:00,
2013-10-08 16:28:00,66.2,48.1,30.22,NNW,347,0.0,3.0,52,0.00,,CLR,0.00,VWS V14.01,2013-10-08 20:28:00,
2013-10-08 16:33:00,66.3,48.2,30.21,NNE,12,0.0,2.0,52,0.00,,CLR,0.00,VWS V14.01,2013-10-08 20:33:00,
2013-10-08 16:38:00,66.6,48.4,30.21,North,5,4.0,4.0,52,0.00,,CLR,0.00,VWS V14.01,2013-10-08 20:38:00,
2013-10-08 16:43:00,66.2,49.1,30.21,WNW,300,0.0,3.0,54,0.00,,CLR,0.00,VWS V14.01,2013-10-08 20:43:00,
2013-10-08 16:48:00,66.4,48.8,30.22,NNW,328,1.0,3.0,53,0.00,,CLR,0.00,VWS V14.01,2013-10-08 20:48:00,
2013-10-08 16:53:00,66.0,48.4,30.22,NE,39,2.0,3.0,53,0.00,,CLR,0.00,VWS V14.01,2013-10-08 20:53:00,
2013-10-08 16:58:00,65.6,48.0,30.22,East,89,0.0,4.0,53,0.00,,CLR,0.00,VWS V14.01,2013-10-08 20:58:00,
2013-10-08 17:03:00,65.8,48.7,30.22,SE,126,1.0,2.0,54,0.00,,CLR,0.00,VWS V14.01,2013-10-08 21:03:00,
2013-10-08 17:09:00,66.0,48.9,30.22,East,93,0.0,1.0,54,0.00,,CLR,0.00,VWS V14.01,2013-10-08 21:09:00,
2013-10-08 17:14:00,65.8,48.2,30.22,North,353,0.0,5.0,53,0.00,,CLR,0.00,VWS V14.01,2013-10-08 21:14:00,
2013-10-08 17:19:00,65.3,48.7,30.22,NNW,335,0.0,4.0,55,0.00,,CLR,0.00,VWS V14.01,2013-10-08 21:19:00,
2013-10-08 17:24:00,65.3,48.7,30.22,WNW,282,0.0,3.0,55,0.00,,CLR,0.00,VWS V14.01,2013-10-08 21:24:00,
2013-10-08 17:29:00,65.2,48.6,30.22,NNE,30,0.0,1.0,55,0.00,,CLR,0.00,VWS V14.01,2013-10-08 21:29:00,
2013-10-08 17:34:00,64.7,48.2,30.22,ESE,106,0.0,1.0,55,0.00,,CLR,0.00,VWS V14.01,2013-10-08 21:34:00,
2013-10-08 17:39:00,64.3,48.8,30.22,NE,41,0.0,1.0,57,0.00,,CLR,0.00,VWS V14.01,2013-10-08 21:39:00,
2013-10-08 17:44:00,64.1,48.6,30.22,NNE,31,0.0,0.0,57,0.00,,CLR,0.00,VWS V14.01,2013-10-08 21:44:00,
2013-10-08 17:49:00,64.2,49.1,30.22,NNW,342,0.0,0.0,58,0.00,,CLR,0.00,VWS V14.01,2013-10-08 21:49:00,
2013-10-08 17:54:00,64.3,48.8,30.22,NNE,12,0.0,1.0,57,0.00,,CLR,0.00,VWS V14.01,2013-10-08 21:54:00,
2013-10-08 17:59:00,63.9,48.8,30.23,NE,39,0.0,1.0,58,0.00,,CLR,0.00,VWS V14.01,2013-10-08 21:59:00,
2013-10-08 18:05:00,63.5,48.5,30.23,NE,47,0.0,1.0,58,0.00,,CLR,0.00,VWS V14.01,2013-10-08 22:05:00,
2013-10-08 18:10:00,63.1,48.6,30.23,NE,50,0.0,0.0,59,0.00,,CLR,0.00,VWS V14.01,2013-10-08 22:10:00,
2013-10-08 18:15:00,62.9,49.3,30.23,ENE,75,0.0,1.0,61,0.00,,CLR,0.00,VWS V14.01,2013-10-08 22:15:00,
2013-10-08 18:20:00,62.9,48.8,30.23,NNE,31,0.0,1.0,60,0.00,,CLR,0.00,VWS V14.01,2013-10-08 22:20:00,
2013-10-08 18:25:00,62.2,49.0,30.24,East,98,0.0,0.0,62,0.00,,CLR,0.00,VWS V14.01,2013-10-08 22:25:00,
2013-10-08 18:30:00,61.3,49.5,30.24,East,80,0.0,1.0,65,0.00,,CLR,0.00,VWS V14.01,2013-10-08 22:30:00,
2013-10-08 18:35:00,60.8,48.6,30.23,ESE,102,0.0,0.0,64,0.00,,CLR,0.00,VWS V14.01,2013-10-08 22:35:00,
2013-10-08 18:40:00,60.3,49.7,30.24,ESE,103,0.0,1.0,68,0.00,,CLR,0.00,VWS V14.01,2013-10-08 22:40:00,
2013-10-08 18:45:00,59.5,48.9,30.24,ESE,103,0.0,0.0,68,0.00,,CLR,0.00,VWS V14.01,2013-10-08 22:45:00,
2013-10-08 18:50:00,59.1,50.1,30.24,ESE,123,0.0,0.0,72,0.00,,CLR,0.00,VWS V14.01,2013-10-08 22:50:00,
2013-10-08 18:55:00,57.6,49.4,30.24,East,98,0.0,1.0,74,0.00,,CLR,0.00,VWS V14.01,2013-10-08 22:55:00,
2013-10-08 19:00:00,57.5,48.6,30.24,ESE,109,0.0,0.0,72,0.00,,CLR,0.00,VWS V14.01,2013-10-08 23:00:00,
2013-10-08 19:05:00,57.8,48.5,30.24,ESE,103,0.0,0.0,71,0.00,,CLR,0.00,VWS V14.01,2013-10-08 23:05:00,
2013-10-08 19:10:00,57.6,48.3,30.24,ESE,104,0.0,0.0,71,0.00,,CLR,0.00,VWS V14.01,2013-10-08 23:10:00,
2013-10-08 19:15:00,57.3,48.4,30.24,East,97,0.0,0.0,72,0.00,,CLR,0.00,VWS V14.01,2013-10-08 23:15:00,
2013-10-08 19:20:00,56.7,48.9,30.24,East,96,0.0,0.0,75,0.00,,CLR,0.00,VWS V14.01,2013-10-08 23:20:00,
2013-10-08 19:25:00,56.4,48.9,30.24,East,94,0.0,0.0,76,0.00,,CLR,0.00,VWS V14.01,2013-10-08 23:25:00,
2013-10-08 19:30:00,56.2,49.1,30.25,East,94,0.0,0.0,77,0.00,,CLR,0.00,VWS V14.01,2013-10-08 23:30:00,
2013-10-08 19:35:00,55.7,49.0,30.25,East,93,0.0,0.0,78,0.00,,CLR,0.00,VWS V14.01,2013-10-08 23:35:00,
2013-10-08 19:40:00,55.3,48.9,30.25,East,93,0.0,0.0,79,0.00,,CLR,0.00,VWS V14.01,2013-10-08 23:40:00,
2013-10-08 19:45:00,54.9,49.2,30.25,East,94,0.0,0.0,81,0.00,,CLR,0.00,VWS V14.01,2013-10-08 23:45:00,
2013-10-08 19:50:00,54.3,48.9,30.25,East,94,0.0,0.0,82,0.00,,CLR,0.00,VWS V14.01,2013-10-08 23:50:00,
2013-10-08 19:55:00,53.7,49.0,30.25,East,94,0.0,0.0,84,0.00,,CLR,0.00,VWS V14.01,2013-10-08 23:55:00,
2013-10-08 20:00:00,52.9,48.8,30.25,East,94,0.0,0.0,86,0.00,,CLR,0.00,VWS V14.01,2013-10-09 00:00:00,
2013-10-08 20:05:00,52.2,48.5,30.25,East,94,0.0,0.0,87,0.00,,CLR,0.00,VWS V14.01,2013-10-09 00:05:00,
2013-10-08 20:10:00,51.8,48.4,30.25,East,94,0.0,0.0,88,0.00,,CLR,0.00,VWS V14.01,2013-10-09 00:10:00,
2013-10-08 20:15:00,51.6,48.5,30.25,East,94,0.0,0.0,89,0.00,,CLR,0.00,VWS V14.01,2013-10-09 00:15:00,
2013-10-08 20:20:00,51.2,47.8,30.26,East,94,0.0,0.0,88,0.00,,CLR,0.00,VWS V14.01,2013-10-09 00:20:00,
2013-10-08 20:25:00,51.2,48.1,30.26,East,94,0.0,0.0,89,0.00,,CLR,0.00,VWS V14.01,2013-10-09 00:25:00,
2013-10-08 20:30:00,51.4,48.0,30.26,East,94,0.0,0.0,88,0.00,,CLR,0.00,VWS V14.01,2013-10-09 00:30:00,
2013-10-08 20:35:00,51.3,47.9,30.26,East,94,0.0,0.0,88,0.00,,CLR,0.00,VWS V14.01,2013-10-09 00:35:00,
2013-10-08 20:40:00,51.5,48.1,30.26,East,93,0.0,0.0,88,0.00,,CLR,0.00,VWS V14.01,2013-10-09 00:40:00,
2013-10-08 20:45:00,51.5,48.1,30.26,East,94,0.0,0.0,88,0.00,,CLR,0.00,VWS V14.01,2013-10-09 00:45:00,
2013-10-08 20:50:00,51.2,47.8,30.26,East,94,0.0,0.0,88,0.00,,CLR,0.00,VWS V14.01,2013-10-09 00:50:00,
2013-10-08 20:55:00,51.1,47.4,30.26,East,93,0.0,0.0,87,0.00,,CLR,0.00,VWS V14.01,2013-10-09 00:55:00,
2013-10-08 21:00:00,52.1,47.7,30.26,East,83,0.0,0.0,85,0.00,,CLR,0.00,VWS V14.01,2013-10-09 01:00:00,
2013-10-08 21:05:00,52.6,47.9,30.27,East,82,0.0,0.0,84,0.00,,CLR,0.00,VWS V14.01,2013-10-09 01:05:00,
2013-10-08 21:10:00,53.1,47.8,30.27,East,82,0.0,0.0,82,0.00,,CLR,0.00,VWS V14.01,2013-10-09 01:10:00,
2013-10-08 21:15:00,53.2,47.9,30.27,East,82,0.0,0.0,82,0.00,,CLR,0.00,VWS V14.01,2013-10-09 01:15:00,
2013-10-08 21:20:00,52.5,47.5,30.27,East,99,0.0,0.0,83,0.00,,CLR,0.00,VWS V14.01,2013-10-09 01:20:00,
2013-10-08 21:25:00,52.6,47.3,30.27,East,92,0.0,0.0,82,0.00,,CLR,0.00,VWS V14.01,2013-10-09 01:25:00,
2013-10-08 21:30:00,52.7,47.4,30.27,East,97,0.0,0.0,82,0.00,,CLR,0.00,VWS V14.01,2013-10-09 01:30:00,
2013-10-08 21:35:00,52.7,47.4,30.28,East,98,0.0,0.0,82,0.00,,CLR,0.00,VWS V14.01,2013-10-09 01:35:00,
2013-10-08 21:40:00,52.9,47.2,30.28,East,92,0.0,0.0,81,0.00,,CLR,0.00,VWS V14.01,2013-10-09 01:40:00,
2013-10-08 21:45:00,53.4,47.1,30.28,East,92,0.0,0.0,79,0.00,,CLR,0.00,VWS V14.01,2013-10-09 01:45:00,
2013-10-08 21:50:00,53.6,47.3,30.28,East,91,0.0,0.0,79,0.00,,CLR,0.00,VWS V14.01,2013-10-09 01:50:00,
2013-10-08 21:55:00,53.3,47.6,30.28,East,91,0.0,0.0,81,0.00,,CLR,0.00,VWS V14.01,2013-10-09 01:55:00,
2013-10-08 22:00:00,52.5,47.5,30.28,East,91,0.0,0.0,83,0.00,,CLR,0.00,VWS V14.01,2013-10-09 02:00:00,
2013-10-08 22:05:00,51.8,46.8,30.28,East,92,0.0,0.0,83,0.00,,CLR,0.00,VWS V14.01,2013-10-09 02:05:00,
2013-10-08 22:10:00,51.4,47.4,30.29,East,91,0.0,0.0,86,0.00,,CLR,0.00,VWS V14.01,2013-10-09 02:10:00,
2013-10-08 22:15:00,50.9,46.9,30.28,East,92,0.0,0.0,86,0.00,,CLR,0.00,VWS V14.01,2013-10-09 02:15:00,
2013-10-08 22:20:00,50.8,47.1,30.28,East,91,0.0,0.0,87,0.00,,CLR,0.00,VWS V14.01,2013-10-09 02:20:00,
2013-10-08 22:25:00,50.2,47.1,30.28,East,92,0.0,0.0,89,0.00,,CLR,0.00,VWS V14.01,2013-10-09 02:25:00,
2013-10-08 22:30:00,49.8,46.7,30.28,East,92,0.0,0.0,89,0.00,,CLR,0.00,VWS V14.01,2013-10-09 02:30:00,
2013-10-08 22:35:00,49.6,46.8,30.29,East,91,0.0,0.0,90,0.00,,CLR,0.00,VWS V14.01,2013-10-09 02:35:00,
2013-10-08 22:40:00,49.5,46.7,30.29,East,92,0.0,0.0,90,0.00,,CLR,0.00,VWS V14.01,2013-10-09 02:40:00,
2013-10-08 22:45:00,49.5,46.7,30.29,East,92,0.0,0.0,90,0.00,,CLR,0.00,VWS V14.01,2013-10-09 02:45:00,
2013-10-08 22:50:00,49.6,46.8,30.29,East,92,0.0,0.0,90,0.00,,CLR,0.00,VWS V14.01,2013-10-09 02:50:00,
2013-10-08 22:55:00,49.7,46.6,30.29,East,91,0.0,0.0,89,0.00,,CLR,0.00,VWS V14.01,2013-10-09 02:55:00,
2013-10-08 23:00:00,50.0,46.9,30.29,East,92,0.0,0.0,89,0.00,,CLR,0.00,VWS V14.01,2013-10-09 03:00:00,
2013-10-08 23:06:00,50.0,46.9,30.29,East,91,0.0,0.0,89,0.00,,CLR,0.00,VWS V14.01,2013-10-09 03:06:00,
2013-10-08 23:11:00,50.3,47.2,30.29,East,92,0.0,0.0,89,0.00,,CLR,0.00,VWS V14.01,2013-10-09 03:11:00,
2013-10-08 23:16:00,50.3,46.9,30.29,East,92,0.0,0.0,88,0.00,,CLR,0.00,VWS V14.01,2013-10-09 03:16:00,
2013-10-08 23:21:00,50.0,46.6,30.29,East,91,0.0,0.0,88,0.00,,CLR,0.00,VWS V14.01,2013-10-09 03:21:00,
2013-10-08 23:26:00,49.8,46.1,30.29,East,91,0.0,0.0,87,0.00,,CLR,0.00,VWS V14.01,2013-10-09 03:26:00,
2013-10-08 23:31:00,49.7,46.3,30.29,East,91,0.0,0.0,88,0.00,,CLR,0.00,VWS V14.01,2013-10-09 03:31:00,
2013-10-08 23:36:00,49.3,45.9,30.29,East,92,0.0,0.0,88,0.00,,CLR,0.00,VWS V14.01,2013-10-09 03:36:00,
2013-10-08 23:41:00,49.0,45.9,30.29,East,92,0.0,0.0,89,0.00,,CLR,0.00,VWS V14.01,2013-10-09 03:41:00,
2013-10-08 23:46:00,49.0,46.5,30.29,East,91,0.0,0.0,91,0.00,,CLR,0.00,VWS V14.01,2013-10-09 03:46:00,
2013-10-08 23:51:00,48.7,45.9,30.29,East,91,0.0,0.0,90,0.00,,CLR,0.00,VWS V14.01,2013-10-09 03:51:00,
2013-10-08 23:56:00,48.4,45.9,30.29,East,91,0.0,0.0,91,0.00,,CLR,0.00,VWS V14.01,2013-10-09 03:56:00,